This demonstration page uses our WeatherBlox Daily Observations layout. Learn more.

Left ArrowRight Arrow

Hourly Observations for July 14, 2015

Temp ( °F °C ) Dew Point ( °F °C ) Humidity (%) Winds ( mph kmh ) Pressure ( in mb ) Visibility ( mi km ) Precip ( " mm )
12:51 am 00:51 Mostly Clear 78 25.6 58 14.4 50 50 ESE 7 11 29.84 1010 10 16.0934 N/A
1:51 am 01:51 Clear 77 25 56 13.3 48 48 E 10 17 29.85 1011 10 16.0934 N/A
2:51 am 02:51 Clear 76 24.4 56 13.3 50 50 E 5 7 29.82 1010 10 16.0934 N/A
3:51 am 03:51 Clear 74 23.3 57 13.9 56 56 N 6 9 29.8 1009 10 16.0934 N/A
4:51 am 04:51 Clear 73 22.8 58 14.4 59 59 SSW 5 7 29.81 1009 10 16.0934 N/A
5:51 am 05:51 Sunny 72 22.2 59 15 64 64 W 3 6 29.83 1010 10 16.0934 N/A
6:51 am 06:51 Mostly Sunny 76 24.4 60 15.6 58 58 N N/A 29.85 1011 10 16.0934 N/A
7:51 am 07:51 Mostly Sunny 77 25 59 15 54 54 SSE 5 7 29.87 1011 10 16.0934 N/A
8:51 am 08:51 Sunny 80 26.7 58 14.4 47 47 ENE 5 7 29.87 1011 10 16.0934 N/A
9:51 am 09:51 Sunny 84 28.9 57 13.9 40 40 ENE 5 7 29.85 1011 10 16.0934 N/A
10:51 am 10:51 Sunny 87 30.6 54 12.2 32 32 S 3 6 29.85 1011 10 16.0934 N/A
11:51 am 11:51 Sunny 90 32.2 53 11.7 28 28 ESE 6 9 29.82 1010 10 16.0934 N/A
12:51 pm 12:51 Sunny 93 33.9 51 10.6 24 24 undefined N/A 29.78 1009 10 16.0934 N/A
1:51 pm 13:51 Sunny 95 35 49 9.4 21 21 N N/A 29.76 1008 10 16.0934 N/A
2:51 pm 14:51 Sunny 94 34.4 48 8.9 21 21 N N/A 29.72 1007 10 16.0934 N/A
3:51 pm 15:51 Sunny 91 32.8 50 10 25 25 SW 15 24 29.72 1007 10 16.0934 N/A
4:51 pm 16:51 Sunny 85 29.3 78 25.6 81 81 WSW 3 6 29.8 1009 10 16.0934 N/A
5:51 pm 17:51 Sunny 93 33.9 52 11.1 25 25 NNW 5 7 29.69 1005 10 16.0934 N/A
6:51 pm 18:51 Sunny 91 32.8 51 10.6 26 26 NW 13 20 29.71 1006 10 16.0934 N/A
7:51 pm 19:51 Clear 89 31.7 54 12.2 30 30 NW 7 11 29.73 1007 10 16.0934 N/A
8:51 pm 20:51 Clear 87 30.6 56 13.3 35 35 ENE 5 7 29.74 1007 10 16.0934 N/A
9:51 pm 21:51 Clear 85 29.4 58 14.4 40 40 N N/A 29.69 1006 10 16.0934 N/A
10:51 pm 22:51 Clear 82 27.8 59 15 46 46 N N/A 29.76 1008 10 16.0934 N/A
11:51 pm 23:51 Clear 84 28.9 56 13.3 38 38 WSW 5 7 29.76 1008 10 16.0934 N/A

Powered by AerisWeather